Change the Weather History Date:

Tuesday, April 1, 2014

  Actual Average (KHAI) Record (KHAI)
Temperature  
Mean Temperature 47 °F -  
Max Temperature 53 °F 55 °F 80 °F (1981)
Min Temperature 41 °F 34 °F 17 °F (1964)
Degree Days  
Heating Degree Days 18    
Moisture  
Dew Point 34 °F    
Average Humidity 60    
Maximum Humidity 87    
Minimum Humidity 47    
Precipitation  
Precipitation 0.00 in - - ()
Sea Level Pressure  
Sea Level Pressure 29.86 in    
Wind  
Wind Speed 15 mph (SW)    
Max Wind Speed 28 mph    
Max Gust Speed 36 mph    
Visibility 10 miles    
Events Rain    
Averages and records for this station are not official NWS values.
T = Trace of Precipitation, MM = Missing Value Source: NWS Daily Summary

Daily Weather History Graph

Daily Weather History Graph

Search for Another Location

Airport or City:

Trip Planner

Search our weather history database for the weather conditions in past years. The results will help you decide how hot, cold, wet, or windy it might be!

Date:

Astronomy

Apr. 01, 2014 Rise Set
Actual Time 7:24 AM EDT 8:07 PM EDT
Civil Twilight 6:56 AM EDT 8:35 PM EDT
Nautical Twilight 6:23 AM EDT 9:08 PM EDT
Astronomical Twilight 5:48 AM EDT 9:43 PM EDT
Moon 8:25 AM EDT (4/1) 10:31 PM EDT (4/1)
Length of Visible Light 13h 38m
Length of Day
12h 42m
Waxing Crescent, 4% of the Moon is Illuminated
Apr 1
Waxing Crescent
Apr 7
First Quarter
Apr 15
Full
Apr 22
Last Quarter
Apr 29
New

Hourly Weather History & Observations

Time (EDT) Temp. Windchill Dew Point Humidity Pressure Visibility Wind Dir Wind Speed Gust Speed Precip Events Conditions
12:15 AM 53.6 °F - 37.4 °F 54% 29.89 in 10.0 mi SSE 12.7 mph 20.7 mph N/A Rain Light Rain
12:35 AM 53.6 °F - 35.6 °F 51% 29.88 in 10.0 mi SE 12.7 mph - N/A   Mostly Cloudy
12:55 AM 53.6 °F - 35.6 °F 51% 29.89 in 10.0 mi SSE 10.4 mph - N/A   Overcast
1:14 AM 53.6 °F - 35.6 °F 51% 29.88 in 10.0 mi SSE 10.4 mph - N/A   Mostly Cloudy
1:35 AM 53.6 °F - 35.6 °F 51% 29.86 in 10.0 mi SSE 17.3 mph - N/A   Mostly Cloudy
1:55 AM 53.6 °F - 33.8 °F 47% 29.87 in 10.0 mi South 13.8 mph 19.6 mph N/A   Mostly Cloudy
2:14 AM 53.6 °F - 35.6 °F 51% 29.89 in 10.0 mi South 13.8 mph 19.6 mph N/A   Overcast
2:35 AM 53.6 °F - 39.2 °F 58% 29.90 in 10.0 mi SSW 24.2 mph 31.1 mph N/A Rain Rain
2:55 AM 50.0 °F - 41.0 °F 71% 29.88 in 7.0 mi South 11.5 mph 17.3 mph N/A Rain Heavy Rain
3:14 AM 48.2 °F - 44.6 °F 87% 29.84 in 10.0 mi SE 11.5 mph 17.3 mph N/A Rain Light Rain
3:35 AM 48.2 °F - 44.6 °F 87% 29.82 in 10.0 mi SE 13.8 mph - N/A   Overcast
3:55 AM 48.2 °F - 44.6 °F 87% 29.81 in 10.0 mi SE 15.0 mph - N/A   Overcast
4:14 AM 50.0 °F - 42.8 °F 76% 29.79 in 10.0 mi SSE 15.0 mph 20.7 mph N/A   Overcast
4:35 AM 50.0 °F - 42.8 °F 76% 29.79 in 10.0 mi SSE 13.8 mph - N/A   Overcast
4:55 AM 51.8 °F - 42.8 °F 71% 29.78 in 10.0 mi SSE 16.1 mph 25.3 mph N/A   Overcast
5:14 AM 51.8 °F - 42.8 °F 71% 29.77 in 10.0 mi South 13.8 mph - N/A   Overcast
5:35 AM 51.8 °F - 42.8 °F 71% 29.76 in 10.0 mi SSE 13.8 mph 18.4 mph N/A   Overcast
5:55 AM 51.8 °F - 42.8 °F 71% 29.76 in 10.0 mi South 15.0 mph - N/A   Overcast
6:14 AM 51.8 °F - 42.8 °F 71% 29.75 in 10.0 mi SSE 13.8 mph 19.6 mph N/A   Overcast
6:35 AM 51.8 °F - 41.0 °F 67% 29.75 in 10.0 mi South 10.4 mph - N/A   Overcast
6:55 AM 51.8 °F - 41.0 °F 67% 29.74 in 10.0 mi South 11.5 mph 17.3 mph N/A   Overcast
7:14 AM 51.8 °F - 41.0 °F 67% 29.74 in 10.0 mi South 15.0 mph - N/A   Overcast
7:35 AM 51.8 °F - 41.0 °F 67% 29.74 in 10.0 mi South 15.0 mph 19.6 mph N/A   Mostly Cloudy
7:55 AM 51.8 °F - 41.0 °F 67% 29.74 in 10.0 mi South 13.8 mph 20.7 mph N/A   Scattered Clouds
8:14 AM 51.8 °F - 42.8 °F 71% 29.75 in 10.0 mi South 11.5 mph 19.6 mph N/A   Mostly Cloudy
8:35 AM 51.8 °F - 42.8 °F 71% 29.74 in 10.0 mi SSW 17.3 mph 23.0 mph N/A   Mostly Cloudy
8:55 AM 51.8 °F - 42.8 °F 71% 29.75 in 10.0 mi SSW 15.0 mph 19.6 mph N/A   Overcast
9:14 AM 51.8 °F - 44.6 °F 76% 29.75 in 10.0 mi SW 16.1 mph 19.6 mph N/A   Overcast
9:35 AM 48.2 °F - 35.6 °F 62% 29.77 in 10.0 mi West 12.7 mph - N/A   Overcast
9:55 AM 48.2 °F - 33.8 °F 58% 29.77 in 10.0 mi WSW 15.0 mph 26.5 mph N/A   Overcast
10:14 AM 48.2 °F - 33.8 °F 58% 29.78 in 10.0 mi WSW 18.4 mph 23.0 mph N/A   Mostly Cloudy
10:35 AM 48.2 °F - 32.0 °F 54% 29.79 in 10.0 mi WSW 19.6 mph 26.5 mph N/A   Scattered Clouds
10:55 AM 48.2 °F - 33.8 °F 58% 29.80 in 10.0 mi WSW 24.2 mph 28.8 mph N/A   Scattered Clouds
11:14 AM 46.4 °F 37.7 °F 32.0 °F 57% 29.80 in 10.0 mi SW 26.5 mph 35.7 mph N/A   Scattered Clouds
11:35 AM 46.4 °F 39.5 °F 32.0 °F 57% 29.80 in 10.0 mi WSW 17.3 mph 27.6 mph N/A   Scattered Clouds
11:55 AM 46.4 °F 38.5 °F 30.2 °F 53% 29.80 in 10.0 mi SW 21.9 mph 32.2 mph N/A   Scattered Clouds
12:14 PM 44.6 °F 36.1 °F 30.2 °F 57% 29.82 in 10.0 mi WSW 21.9 mph 34.5 mph N/A   Scattered Clouds
12:35 PM 44.6 °F 35.3 °F 30.2 °F 57% 29.82 in 10.0 mi SW 26.5 mph 32.2 mph N/A   Scattered Clouds
12:55 PM 44.6 °F 35.7 °F 30.2 °F 57% 29.82 in 10.0 mi WSW 24.2 mph 32.2 mph N/A   Scattered Clouds
1:14 PM 44.6 °F 35.7 °F 30.2 °F 57% 29.83 in 10.0 mi WSW 24.2 mph 31.1 mph N/A   Scattered Clouds
1:35 PM 44.6 °F 35.5 °F 30.2 °F 57% 29.84 in 10.0 mi WSW 25.3 mph 32.2 mph N/A   Scattered Clouds
1:55 PM 44.6 °F 35.7 °F 30.2 °F 57% 29.85 in 10.0 mi WSW 24.2 mph 29.9 mph N/A   Scattered Clouds
2:14 PM 44.6 °F 35.9 °F 30.2 °F 57% 29.85 in 10.0 mi West 23.0 mph 34.5 mph N/A   Scattered Clouds
2:35 PM 46.4 °F 38.5 °F 30.2 °F 53% 29.85 in 10.0 mi WSW 21.9 mph 29.9 mph N/A   Scattered Clouds
2:55 PM 46.4 °F 38.1 °F 30.2 °F 53% 29.85 in 10.0 mi WSW 24.2 mph 31.1 mph N/A   Scattered Clouds
3:14 PM 46.4 °F 37.5 °F 30.2 °F 53% 29.86 in 10.0 mi WSW 27.6 mph 34.5 mph N/A   Clear
3:35 PM 46.4 °F 37.9 °F 30.2 °F 53% 29.87 in 10.0 mi WSW 25.3 mph 35.7 mph N/A   Clear
3:55 PM 46.4 °F 37.9 °F 30.2 °F 53% 29.87 in 10.0 mi WSW 25.3 mph 34.5 mph N/A   Clear
4:15 PM 46.4 °F 38.7 °F 30.2 °F 53% 29.88 in 10.0 mi WSW 20.7 mph 29.9 mph N/A   Clear
4:35 PM 48.2 °F - 30.2 °F 50% 29.88 in 10.0 mi WSW 23.0 mph 31.1 mph N/A   Scattered Clouds
4:55 PM 48.2 °F - 30.2 °F 50% 29.88 in 10.0 mi WSW 23.0 mph 31.1 mph N/A   Scattered Clouds
5:14 PM 48.2 °F - 30.2 °F 50% 29.89 in 10.0 mi WSW 24.2 mph 32.2 mph N/A   Scattered Clouds
5:35 PM 48.2 °F - 30.2 °F 50% 29.89 in 10.0 mi West 20.7 mph 31.1 mph N/A   Clear
5:54 PM 48.2 °F - 30.2 °F 50% 29.90 in 10.0 mi SW 24.2 mph 28.8 mph N/A   Scattered Clouds
6:15 PM 48.2 °F - 30.2 °F 50% 29.91 in 10.0 mi West 13.8 mph 24.2 mph N/A   Clear
6:35 PM 48.2 °F - 30.2 °F 50% 29.92 in 10.0 mi West 15.0 mph 28.8 mph N/A   Clear
6:54 PM 48.2 °F - 30.2 °F 50% 29.93 in 10.0 mi West 16.1 mph 27.6 mph N/A   Clear
7:15 PM 46.4 °F 40.4 °F 30.2 °F 53% 29.94 in 10.0 mi West 13.8 mph 20.7 mph N/A   Clear
7:34 PM 46.4 °F 41.5 °F 30.2 °F 53% 29.95 in 10.0 mi West 10.4 mph - N/A   Clear
7:55 PM 44.6 °F 41.4 °F 30.2 °F 57% 29.96 in 10.0 mi West 5.8 mph - N/A   Clear
8:15 PM 42.8 °F 38.0 °F 30.2 °F 61% 29.97 in 10.0 mi WNW 8.1 mph - N/A   Clear
8:34 PM 42.8 °F 38.6 °F 28.4 °F 57% 29.98 in 10.0 mi West 6.9 mph - N/A   Clear
8:55 PM 42.8 °F 37.5 °F 28.4 °F 57% 29.99 in 10.0 mi West 9.2 mph - N/A   Clear
9:15 PM 42.8 °F 38.6 °F 28.4 °F 57% 30.00 in 10.0 mi West 6.9 mph - N/A   Clear
9:34 PM 42.8 °F 38.0 °F 28.4 °F 57% 30.00 in 10.0 mi West 8.1 mph - N/A   Clear
9:55 PM 42.8 °F 39.3 °F 28.4 °F 57% 30.01 in 10.0 mi West 5.8 mph - N/A   Clear
10:14 PM 42.8 °F 38.0 °F 28.4 °F 57% 30.02 in 10.0 mi West 8.1 mph - N/A   Clear
10:35 PM 41.0 °F 35.8 °F 28.4 °F 61% 30.03 in 10.0 mi WSW 8.1 mph - N/A   Clear
10:55 PM 41.0 °F 35.8 °F 28.4 °F 61% 30.04 in 10.0 mi WSW 8.1 mph - N/A   Clear
11:14 PM 41.0 °F 36.4 °F 28.4 °F 61% 30.04 in 10.0 mi West 6.9 mph - N/A   Clear
11:35 PM 42.8 °F 38.6 °F 28.4 °F 57% 30.05 in 10.0 mi West 6.9 mph - N/A   Clear
11:55 PM 42.8 °F 38.0 °F 28.4 °F 57% 30.05 in 10.0 mi West 8.1 mph - N/A   Clear